DW4238 Weather Reports


Display with metric or nautical units.
time (UTC)temp
F
wind
direction
speed
MPH
gust
MPH
rain 1hr
in
rain 24hr
in
rain mn
in
humidity
%
barometer
mb
20260506231038 69 342 10.0 16.0 0.00 0.00 0.00 78 1009.5
20260506230105 69 346 10.0 15.0 0.00 0.00 0.00 78 1009.5
20260506225608 69 326 10.0 15.0 0.00 0.00 0.00 77 1009.6
20260506224616 69 329 11.0 19.0 0.00 0.00 0.00 78 1009.6
20260506224117 69 360 12.0 19.0 0.00 0.00 0.00 78 1009.6
20260506223606 69 355 10.0 17.0 0.00 0.00 0.00 78 1009.6
20260506223025 69 331 10.0 17.0 0.00 0.00 0.00 78 1009.5
20260506222535 69 360 12.0 17.0 0.00 0.00 0.00 79 1009.4
20260506221536 69 355 12.0 21.0 0.00 0.00 0.00 78 1009.6
20260506221050 69 338 13.0 21.0 0.00 0.00 0.00 78 1009.4
20260506220111 71 321 10.0 16.0 0.00 0.00 0.00 79 1009.5
20260506215554 71 330 11.0 19.0 0.00 0.00 0.00 78 1009.4
20260506214621 73 347 12.0 18.0 0.00 0.00 0.00 79 1009.2
20260506214103 74 317 10.0 16.0 0.00 0.00 0.00 80 1009.1
20260506213614 75 326 10.0 19.0 0.00 0.00 0.00 79 1009.1
20260506213033 76 346 12.0 19.0 0.00 0.00 0.00 79 1009.0
20260506212550 77 342 9.0 17.0 0.00 0.00 0.00 81 1008.8
20260506211550 78 9 10.0 15.0 0.00 0.00 0.00 80 1008.8
20260506211033 79 321 10.0 15.0 0.00 0.00 0.00 79 1008.8
20260506205611 80 331 5.0 11.0 0.00 0.00 0.00 80 1008.9
20260506205118 80 343 4.0 10.0 0.00 0.00 0.00 81 1008.7
20260506204535 80 355 7.0 11.0 0.00 0.00 0.00 80 1008.8
20260506204026 80 300 8.0 11.0 0.00 0.00 0.00 80 1008.8
20260506203637 80 335 5.0 8.0 0.00 0.00 0.00 79 1008.8
20260506203041 80 338 5.0 12.0 0.00 0.00 0.00 81 1008.7
20260506202551 80 341 8.0 12.0 0.00 0.00 0.00 80 1008.8
20260506201551 80 17 5.0 9.0 0.00 0.00 0.00 80 1008.7
20260506201101 80 320 4.0 9.0 0.00 0.00 0.00 80 1008.7
20260506200100 79 28 3.0 7.0 0.00 0.00 0.00 81 1008.8
20260506195547 79 58 3.0 7.0 0.00 0.00 0.00 82 1008.9
20260506194547 79 34 4.0 7.0 0.00 0.00 0.00 81 1009.1
20260506194030 78 106 3.0 8.0 0.00 0.00 0.00 82 1009.1
20260506193055 77 28 5.0 10.0 0.00 0.00 0.00 82 1009.1
20260506192702 77 18 7.0 10.0 0.00 0.00 0.00 82 1008.9
20260506192118 76 64 2.0 6.0 0.00 0.00 0.00 83 1008.8
20260506191534 76 57 3.0 9.0 0.00 0.00 0.00 84 1008.9
20260506191045 75 61 4.0 9.0 0.00 0.00 0.00 84 1009.0
20260506190106 74 22 4.0 6.0 0.00 0.00 0.00 84 1009.2
20260506185618 73 29 4.0 6.0 0.00 0.00 0.00 84 1009.4
20260506185121 73 16 4.0 9.0 0.00 0.00 0.00 83 1009.4
20260506184547 73 37 5.0 9.0 0.00 0.00 0.00 84 1009.6
20260506184032 72 44 3.0 11.0 0.00 0.00 0.00 85 1009.6
20260506183036 71 331 5.0 13.0 0.00 0.00 0.00 85 1009.5
20260506182547 71 13 9.0 13.0 0.00 0.00 0.00 84 1009.7
20260506181606 69 350 7.0 13.0 0.00 0.00 0.00 87 1009.9
20260506181118 68 323 6.0 13.0 0.00 0.00 0.00 86 1010.0
20260506180622 68 348 8.0 14.0 0.00 0.00 0.00 87 1010.1
20260506180047 67 360 9.0 15.0 0.00 0.00 0.00 87 1010.0
20260506175551 67 326 10.0 14.0 0.00 0.00 0.00 87 1010.2
20260506175101 67 319 9.0 20.0 0.00 0.00 0.00 87 1010.2
20260506174531 67 343 12.0 18.0 0.00 0.00 0.00 86 1010.4
20260506174035 67 355 11.0 17.0 0.00 0.00 0.00 86 1010.3
20260506173055 68 360 6.0 16.0 0.00 0.00 0.00 87 1010.6
20260506172606 69 349 11.0 16.0 0.00 0.00 0.00 86 1010.7
20260506171604 73 360 8.0 21.0 0.00 0.00 0.00 83 1010.9
20260506171114 78 308 10.0 21.0 0.00 0.00 0.00 83 1010.9
20260506170618 79 144 1.0 2.0 0.00 0.00 0.00 87 1010.6
20260506170023 79 144 0.0 2.0 0.00 0.00 0.00 87 1010.7
20260506165538 79 144 1.0 2.0 0.00 0.00 0.00 87 1010.7
20260506165138 79 136 1.0 2.0 0.00 0.00 0.00 87 1010.7
20260506164547 79 144 0.0 2.0 0.00 0.00 0.00 87 1010.6
20260506163631 79 140 0.0 0.0 0.00 0.00 0.00 87 1010.7
20260506163038 79 140 0.0 0.0 0.00 0.00 0.00 87 1010.8
20260506162543 79 140 0.0 0.0 0.00 0.00 0.00 87 1010.8
20260506161611 78 140 0.0 4.0 0.00 0.00 0.00 88 1010.8
20260506161053 78 140 3.0 4.0 0.00 0.00 0.00 88 1010.7
20260506160113 78 138 3.0 5.0 0.00 0.00 0.00 88 1010.1
20260506155526 78 194 0.0 1.0 0.00 0.00 0.00 88 1010.0
20260506154547 78 204 0.0 0.0 0.00 0.00 0.00 88 1009.7
20260506154035 78 204 0.0 0.0 0.00 0.00 0.00 88 1009.7
20260506153035 78 174 1.0 7.0 0.00 0.00 0.00 88 1009.7
20260506152546 78 173 2.0 7.0 0.00 0.00 0.00 88 1009.6
20260506151608 78 148 3.0 6.0 0.00 0.00 0.00 89 1009.5
20260506151110 78 148 3.0 6.0 0.00 0.00 0.00 89 1009.5
20260506150622 77 107 3.0 6.0 0.00 0.00 0.00 89 1009.4
20260506150036 77 107 3.0 5.0 0.00 0.00 0.00 89 1009.7
20260506145535 77 212 0.0 4.0 0.00 0.00 0.00 89 1009.7
20260506144534 77 228 1.0 2.0 0.00 0.00 0.00 89 1009.8
20260506144046 77 163 0.0 3.0 0.00 0.00 0.00 89 1009.7
20260506143105 77 164 4.0 7.0 0.00 0.00 0.00 89 1009.3
20260506142618 77 164 4.0 8.0 0.00 0.00 0.00 89 1009.2
20260506142121 77 150 3.0 7.0 0.00 0.00 0.00 89 1009.1
20260506141547 77 123 3.0 8.0 0.00 0.00 0.00 89 1009.0
20260506141101 77 140 4.0 9.0 0.00 0.00 0.00 90 1008.9
20260506135604 77 122 4.0 7.0 0.00 0.00 0.00 90 1008.8
20260506135115 76 135 4.0 7.0 0.00 0.00 0.00 90 1008.8
20260506134542 76 171 4.0 8.0 0.00 0.00 0.00 90 1008.9
20260506134046 76 163 5.0 9.0 0.00 0.00 0.00 90 1008.8
20260506133534 76 154 6.0 9.0 0.00 0.00 0.00 90 1008.9
20260506133139 76 148 6.0 10.0 0.00 0.00 0.00 90 1008.8
20260506132526 76 149 7.0 10.0 0.00 0.00 0.00 90 1008.8
20260506131549 76 150 5.0 9.0 0.00 0.00 0.00 90 1008.8
20260506131059 76 148 5.0 8.0 0.00 0.00 0.00 90 1008.8
20260506130558 76 147 4.0 5.0 0.00 0.00 0.00 90 1008.8
20260506130030 76 142 4.0 5.0 0.00 0.00 0.00 90 1008.8
20260506125531 76 138 4.0 6.0 0.00 0.00 0.00 90 1008.8
20260506124600 76 162 4.0 6.0 0.00 0.00 0.00 90 1008.7
20260506124043 76 153 4.0 7.0 0.00 0.00 0.00 90 1008.7
20260506123045 76 163 5.0 7.0 0.00 0.00 0.00 90 1008.7
20260506122600 76 162 5.0 6.0 0.00 0.00 0.00 90 1008.7
20260506122059 76 161 4.0 6.0 0.00 0.00 0.00 90 1008.6
20260506121529 76 151 4.0 6.0 0.00 0.00 0.00 90 1008.6
20260506121041 76 182 1.0 5.0 0.00 0.00 0.00 90 1008.6
20260506120059 76 182 3.0 5.0 0.00 0.00 0.00 90 1008.7
20260506115603 76 187 3.0 5.0 0.00 0.00 0.00 90 1008.6
20260506115115 76 188 3.0 5.0 0.00 0.00 0.00 90 1008.5
20260506114540 76 129 4.0 6.0 0.00 0.00 0.00 90 1008.5
20260506114048 76 163 4.0 6.0 0.00 0.00 0.00 90 1008.4
20260506113047 76 157 4.0 6.0 0.00 0.00 0.00 90 1008.2
20260506112559 76 179 3.0 5.0 0.00 0.00 0.00 90 1008.2
20260506112051 76 174 3.0 7.0 0.00 0.00 0.00 90 1008.2
20260506111533 76 167 5.0 7.0 0.00 0.00 0.00 90 1008.2
20260506111042 76 160 5.0 7.0 0.00 0.00 0.00 90 1008.1
20260506110100 76 180 2.0 6.0 0.00 0.00 0.00 90 1008.1
20260506105611 76 202 3.0 7.0 0.00 0.00 0.00 90 1008.1
20260506104543 76 187 5.0 8.0 0.00 0.00 0.00 90 1008.0
20260506104056 76 172 4.0 8.0 0.00 0.00 0.00 90 1008.0
20260506103119 76 188 4.0 8.0 0.00 0.00 0.00 90 1007.8
20260506102528 76 185 6.0 9.0 0.00 0.00 0.00 90 1007.7
20260506102121 76 185 4.0 9.0 0.00 0.00 0.00 90 1007.6
20260506101537 76 150 7.0 10.0 0.00 0.00 0.00 90 1007.5
20260506101047 76 172 5.0 10.0 0.00 0.00 0.00 90 1007.5
20260506100106 76 183 6.0 10.0 0.00 0.00 0.00 90 1007.2
20260506095548 76 186 6.0 12.0 0.00 0.00 0.00 90 1007.1
20260506094611 76 191 7.0 10.0 0.00 0.00 0.00 90 1007.1
20260506094122 76 155 8.0 11.0 0.00 0.00 0.00 89 1007.1
20260506093121 76 172 10.0 14.0 0.00 0.00 0.00 89 1007.1
20260506092631 76 170 7.0 10.0 0.00 0.00 0.00 90 1007.2
20260506092111 76 178 6.0 12.0 0.00 0.00 0.00 90 1007.2
20260506091539 76 196 7.0 12.0 0.00 0.00 0.00 90 1007.1
20260506091042 76 192 8.0 13.0 0.00 0.00 0.00 90 1007.0
20260506090045 76 179 7.0 12.0 0.00 0.00 0.00 90 1006.9
20260506085536 76 184 9.0 12.0 0.00 0.00 0.00 90 1006.9
20260506085123 76 174 9.0 12.0 0.00 0.00 0.00 90 1006.9
20260506084546 76 175 7.0 10.0 0.00 0.00 0.00 90 1006.9
20260506084035 76 170 7.0 10.0 0.00 0.00 0.00 90 1006.9
20260506083058 76 171 10.0 13.0 0.00 0.00 0.00 90 1006.8
20260506082608 76 171 10.0 15.0 0.00 0.00 0.00 90 1006.9
20260506082110 76 158 10.0 15.0 0.00 0.00 0.00 90 1006.9
20260506081534 76 178 9.0 15.0 0.00 0.00 0.00 90 1007.0
20260506081037 76 169 11.0 15.0 0.00 0.00 0.00 90 1006.9
20260506080108 76 139 8.0 17.0 0.00 0.00 0.00 90 1007.0
20260506073026 76 157 13.0 18.0 0.00 0.00 0.00 90 1007.2
20260506072539 76 200 12.0 18.0 0.00 0.00 0.00 90 1007.2
20260506071558 76 191 10.0 19.0 0.00 0.00 0.00 90 1007.3
20260506071116 76 147 13.0 19.0 0.00 0.00 0.00 90 1007.4
20260506070525 76 148 11.0 17.0 0.00 0.00 0.00 89 1007.5
20260506062024 76 158 11.0 17.0 0.00 0.00 0.00 89 1007.8
20260506061543 76 175 9.0 14.0 0.00 0.00 0.00 90 1007.9
20260506061052 76 148 10.0 14.0 0.00 0.00 0.00 89 1007.9
20260506060541 76 148 10.0 17.0 0.00 0.00 0.00 89 1007.9
20260506051040 76 150 11.0 15.0 0.00 0.00 0.00 89 1007.8
20260506050549 76 155 12.0 18.0 0.00 0.00 0.00 89 1007.8
20260506045053 76 162 10.0 14.0 0.00 0.00 0.00 89 1007.9
20260506044525 76 134 9.0 15.0 0.00 0.00 0.00 88 1007.9
20260506044028 77 162 10.0 15.0 0.00 0.00 0.00 88 1008.0
20260506043635 77 140 9.0 14.0 0.00 0.00 0.00 88 1008.0
20260506043046 77 157 10.0 16.0 0.00 0.00 0.00 87 1007.9
20260506042528 77 161 11.0 15.0 0.00 0.00 0.00 87 1008.0
20260506041601 77 154 11.0 15.0 0.00 0.00 0.00 88 1007.8
20260506041100 77 175 10.0 15.0 0.00 0.00 0.00 88 1007.8
20260506040610 77 169 8.0 13.0 0.00 0.00 0.00 88 1007.6
20260506040028 77 163 8.0 15.0 0.00 0.00 0.00 87 1007.5
20260506035539 77 166 9.0 15.0 0.00 0.00 0.00 87 1007.4
20260506034602 77 171 10.0 14.0 0.00 0.00 0.00 87 1007.2
20260506034112 77 184 10.0 14.0 0.00 0.00 0.00 86 1007.1
20260506033108 77 184 12.0 16.0 0.00 0.00 0.00 86 1006.9
20260506032549 78 150 13.0 18.0 0.00 0.00 0.00 86 1006.9
20260506032056 78 153 11.0 18.0 0.00 0.00 0.00 85 1006.9
20260506031526 78 165 12.0 19.0 0.00 0.00 0.00 85 1007.0
20260506031031 78 179 12.0 20.0 0.00 0.00 0.00 85 1006.9
20260506030035 78 181 10.0 16.0 0.00 0.00 0.00 85 1006.9
20260506025550 78 159 10.0 15.0 0.00 0.00 0.00 85 1006.9
20260506024545 78 165 8.0 17.0 0.00 0.00 0.00 84 1006.8
20260506024032 78 156 10.0 17.0 0.00 0.00 0.00 84 1006.8
20260506023053 78 172 8.0 15.0 0.00 0.00 0.00 84 1006.7
20260506022541 78 180 9.0 15.0 0.00 0.00 0.00 84 1006.6
20260506021601 78 186 9.0 12.0 0.00 0.00 0.00 83 1006.6
20260506021104 78 153 7.0 12.0 0.00 0.00 0.00 83 1006.6
20260506020043 79 167 9.0 15.0 0.00 0.00 0.00 83 1006.5
20260506015556 79 180 9.0 15.0 0.00 0.00 0.00 83 1006.5
20260506015054 79 171 8.0 12.0 0.00 0.00 0.00 83 1006.4
20260506014524 79 180 9.0 12.0 0.00 0.00 0.00 83 1006.2
20260506014036 79 163 9.0 14.0 0.00 0.00 0.00 83 1006.2
20260506013057 79 177 9.0 14.0 0.00 0.00 0.00 82 1006.0
20260506012600 79 175 9.0 16.0 0.00 0.00 0.00 82 1005.8
20260506012110 79 168 10.0 15.0 0.00 0.00 0.00 82 1005.8
20260506011528 79 165 10.0 17.0 0.00 0.00 0.00 82 1005.6
20260506011043 79 182 10.0 19.0 0.00 0.00 0.00 82 1005.6
20260506010104 80 152 13.0 17.0 0.00 0.00 0.00 81 1005.5
20260506005614 80 157 12.0 17.0 0.00 0.00 0.00 81 1005.4
20260506005116 80 166 11.0 16.0 0.00 0.00 0.00 81 1005.4
20260506004543 80 175 9.0 17.0 0.00 0.00 0.00 80 1005.4
20260506004024 80 146 11.0 17.0 0.00 0.00 0.00 80 1005.4
20260506003614 81 155 11.0 15.0 0.00 0.00 0.00 80 1005.3
20260506003041 81 155 11.0 15.0 0.00 0.00 0.00 80 1005.3
20260506002544 81 171 10.0 15.0 0.00 0.00 0.00 80 1005.4
20260506001608 81 172 11.0 18.0 0.00 0.00 0.00 79 1005.4
20260506001118 81 161 9.0 11.0 0.00 0.00 0.00 80 1005.3
20260506000555 81 175 7.0 18.0 0.00 0.00 0.00 80 1005.5
20260506000024 81 170 12.0 18.0 0.00 0.00 0.00 79 1005.5
20260505235535 81 158 7.0 17.0 0.00 0.00 0.00 80 1005.5
20260505234555 81 178 11.0 17.0 0.00 0.00 0.00 79 1005.3
20260505234058 81 165 12.0 18.0 0.00 0.00 0.00 79 1005.3
20260505233100 81 161 12.0 18.0 0.00 0.00 0.00 79 1005.3
20260505232603 82 160 13.0 18.0 0.00 0.00 0.00 78 1005.1
20260505231606 82 149 11.0 18.0 0.00 0.00 0.00 78 1005.3